Weather History for Rawlins, WY

Change the Weather History Date:

Thursday, January 17, 2013

  Actual Average Record
Temperature  
Mean Temperature 15 °F 22 °F  
Max Temperature 34 °F 31 °F 50 °F (2000)
Min Temperature -4 °F 12 °F -25 °F (1984)
Degree Days  
Heating Degree Days 50 43  
Month to date heating degree days 906 731  
Since 1 July heating degree days 3857 4185  
Cooling Degree Days 0 0  
Month to date cooling degree days 0 0  
Year to date cooling degree days 0 0  
Moisture  
Dew Point 5 °F    
Average Humidity 63    
Maximum Humidity 87    
Minimum Humidity 38    
Precipitation  
Precipitation 0.00 in 0.01 in 0.16 in (1978)
Month to date precipitation T 0.21  
Year to date precipitation T 0.21  
Sea Level Pressure  
Sea Level Pressure 30.60 in    
Wind  
Wind Speed 6 mph (SW)    
Max Wind Speed 22 mph    
Max Gust Speed 28 mph    
Visibility 10 miles    
Events      
T = Trace of Precipitation, MM = Missing Value Source: NWS Daily Summary

Daily Weather History Graph

Daily Weather History Graph

Search for Another Location

Airport:

Trip Planner

Search our weather history database for the weather conditions in past years. The results will help you decide how hot, cold, wet, or windy it might be!

Date:

Astronomy

Jan. 17, 2013 Rise Set
Actual Time 7:32 AM MST 5:05 PM MST
Civil Twilight 7:02 AM MST 5:36 PM MST
Nautical Twilight 6:27 AM MST 6:10 PM MST
Astronomical Twilight 5:54 AM MST 6:43 PM MST
Moon 10:34 AM MST (1/17) No Moon Set
Length of Visible Light 10h 34m
Length of Day
9h 33m
Waxing Crescent, 38% of the Moon is Illuminated
Jan 17
Waxing Crescent
Jan 18
First Quarter
Jan 26
Full
Feb 3
Last Quarter
Feb 10
New

Hourly Weather History & Observations

Time (MST) Temp. Windchill Dew Point Humidity Pressure Visibility Wind Dir Wind Speed Gust Speed Precip Events Conditions
12:53 AM 6.1 °F -2.8 °F 1.0 °F 80% 30.63 in 10.0 mi SSE 4.6 mph - N/A   Clear
2:53 AM 3.0 °F - -0.9 °F 84% 30.66 in 10.0 mi Calm Calm - N/A   Clear
3:53 AM -0.9 °F - -6.0 °F 79% 30.68 in 10.0 mi Calm Calm - N/A   Clear
5:53 AM 1.9 °F - -2.9 °F 80% 30.69 in 10.0 mi Calm Calm - N/A   Clear
6:53 AM -2.9 °F - -8.0 °F 79% 30.73 in 10.0 mi Calm Calm - N/A   Clear
7:53 AM -2.0 °F -10.1 °F -7.1 °F 79% 30.75 in 10.0 mi WNW 3.5 mph - N/A   Clear
8:53 AM 12.0 °F - 7.0 °F 80% 30.70 in 10.0 mi Calm Calm - N/A   Clear
9:53 AM 12.9 °F - 6.1 °F 74% 30.72 in 10.0 mi Calm Calm - N/A   Clear
10:53 AM 19.9 °F - 8.1 °F 60% 30.67 in 10.0 mi Calm Calm - N/A   Clear
11:53 AM 25.0 °F 20.7 °F 10.0 °F 53% 30.64 in 10.0 mi SW 3.5 mph - N/A   Clear
12:53 PM 30.9 °F 22.2 °F 12.0 °F 46% 30.57 in 10.0 mi West 10.4 mph - N/A   Clear
1:53 PM 34.0 °F 23.8 °F 10.9 °F 38% 30.53 in 10.0 mi WSW 16.1 mph - N/A   Clear
2:53 PM 32.0 °F 21.6 °F 12.0 °F 44% 30.54 in 10.0 mi WSW 15.0 mph - N/A   Clear
3:53 PM 30.9 °F 19.1 °F 10.9 °F 43% 30.57 in 10.0 mi WSW 18.4 mph - N/A   Clear
4:53 PM 28.0 °F 16.1 °F 10.0 °F 47% 30.57 in 10.0 mi WSW 16.1 mph - N/A   Clear
5:53 PM 21.0 °F 9.3 °F 8.1 °F 57% 30.59 in 10.0 mi WSW 11.5 mph - N/A   Clear
6:53 PM 21.9 °F 13.4 °F 7.0 °F 53% 30.61 in 10.0 mi SW 6.9 mph - N/A   Clear
7:53 PM 25.0 °F - 7.0 °F 46% 30.57 in 10.0 mi Calm Calm - N/A   Clear
8:53 PM 24.1 °F 15.2 °F 7.0 °F 48% 30.51 in 10.0 mi ESE 8.1 mph - N/A   Clear
9:53 PM 19.9 °F - 7.0 °F 57% 30.48 in 10.0 mi Calm Calm - N/A   Clear
10:53 PM 25.0 °F 12.2 °F 8.1 °F 49% 30.41 in 10.0 mi WSW 16.1 mph - N/A   Clear
11:53 PM 25.0 °F 12.2 °F 8.1 °F 49% 30.38 in 10.0 mi WSW 16.1 mph 25.3 mph N/A   Clear